Flag for Greece Weather past 2 weeks in Keratsini, Greece

Now
79 °F

Clear.


Feels Like: 79 °F
Forecast: 76 / 86 °F
Wind: 7 mph from Northwest

Location: Elefsis Airport

Current Time: Aug 29, 2014 at 10:12:38 PM

Latest Report: Aug 29, 2014 at 9:20 PM


Visibility: 10 mi

Pressure: 29.98 "Hg

Humidity: 45%

Dew point: 55 °F

Location of KeratsiniLocation

Historic Weather in Keratsini — Graph

°F

Keratsini temperature yesterday

Maximum temperature yesterday: 99 °F (at 2:50 PM)
Minimum temperature yesterday: 72 °F (at 4:50 AM)
Average temperature yesterday: 86 °F

Past Weeks' High & Low Weather Summary

 TemperatureHumidityPressure
High104 °F (Aug 24, 2:50 PM)74% (Aug 16, 2:20 AM)30.01 "Hg (Aug 16, 2:20 AM)
Low68 °F (Aug 21, 6:20 AM)8% (Aug 24, 3:20 PM)29.65 "Hg (Aug 17, 4:50 PM)
Average84 °F40%29.86 "Hg
* Reported Aug 14 8:20 PM — Aug 29 8:50 PM, Keratsini, Weather by CustomWeather, © 2014

Note: Actual official high and low records may vary slightly from our data, if they occured in-between our weather recording intervals... More about our weather records

Advertising

Keratsini weather history for previous 24 hours

 ConditionsComfort  
Time TempWeatherWind HumidityBarometerVisibility
8:50 PM
Aug 29
81 °FSunny.5 mph42%29.95 "Hg10 mi
8:20 PM81 °FSunny.7 mph42%29.95 "Hg10 mi
7:50 PM82 °FSunny.12 mph37%29.95 "Hg10 mi
7:20 PM84 °FSunny.12 mph35%29.95 "Hg10 mi
6:50 PM84 °FSunny.13 mph37%29.95 "Hg10 mi
6:20 PM86 °FPassing clouds.16 mph33%29.92 "HgN/A
5:50 PM88 °FPassing clouds.17 mph33%29.92 "HgN/A
5:20 PM88 °FPassing clouds.15 mph33%29.92 "HgN/A
4:50 PM90 °FPassing clouds.16 mph31%29.92 "HgN/A
4:20 PM90 °FPassing clouds.15 mph31%29.92 "HgN/A
3:50 PM90 °FPassing clouds.13 mph31%29.92 "HgN/A
3:20 PM90 °FPassing clouds.15 mph31%29.92 "HgN/A
2:50 PM91 °FPassing clouds.15 mph30%29.92 "HgN/A
1:50 PM91 °FPassing clouds.18 mph30%29.92 "HgN/A
1:20 PM91 °FPassing clouds.24 mph32%29.92 "HgN/A
12:50 PM90 °FPassing clouds.16 mph33%29.92 "HgN/A
12:20 PM90 °FPassing clouds.13 mph33%29.92 "HgN/A
11:50 AM90 °FPassing clouds.14 mph33%29.92 "HgN/A
11:20 AM88 °FPassing clouds.14 mph35%29.95 "HgN/A
10:50 AM86 °FPassing clouds.18 mph38%29.95 "HgN/A
10:20 AM86 °FPassing clouds.17 mph40%29.95 "HgN/A
9:50 AM84 °FPassing clouds.16 mph43%29.95 "HgN/A
9:20 AM82 °FSunny.13 mph45%29.92 "Hg10 mi
8:50 AM81 °FSunny.14 mph48%29.92 "Hg10 mi
8:20 AM81 °FSunny.13 mph45%29.92 "Hg10 mi
7:50 AM81 °FClear.12 mph45%29.92 "Hg10 mi
7:20 AM79 °FClear.10 mph45%29.92 "Hg10 mi
6:50 AM79 °FClear.8 mph45%29.89 "Hg10 mi
6:20 AM79 °FClear.7 mph45%29.89 "Hg10 mi
5:50 AM79 °FClear.9 mph45%29.89 "Hg10 mi
4:50 AM81 °FClear.12 mph45%29.86 "Hg10 mi
3:50 AM81 °FClear.12 mph45%29.86 "Hg10 mi
3:20 AM81 °FClear.9 mph54%29.89 "Hg10 mi
2:50 AM82 °FClear.13 mph48%29.86 "Hg10 mi
2:20 AM82 °FClear.12 mph48%29.86 "Hg10 mi
1:50 AM82 °FClear.10 mph48%29.86 "Hg10 mi
12:20 AM84 °FClear.8 mph43%29.86 "Hg10 mi
11:50 PM
Aug 28
86 °FClear.6 mph38%29.86 "Hg10 mi
11:20 PM86 °FClear.No wind38%29.86 "Hg10 mi
10:50 PM82 °FClear.No wind42%29.80 "Hg10 mi
10:20 PM82 °FClear.6 mph45%29.80 "Hg10 mi
Weather by CustomWeather, © 2014

See weather overviewHow to use our weather pages